TimePDT,TemperatureF,Dew PointF,Humidity,Sea Level PressureIn,VisibilityMPH,Wind Direction,Wind SpeedMPH,Gust SpeedMPH,PrecipitationIn,Events,Conditions,WindDirDegrees,DateUTC
12:15 AM,55.4,26.6,33,29.97,10.0,North,3.5,-,N/A,,Overcast,350,2012-10-10 07:15:00
12:35 AM,53.6,26.6,35,29.98,10.0,ESE,3.5,-,N/A,,Overcast,120,2012-10-10 07:35:00
12:55 AM,53.6,26.6,35,29.98,10.0,South,3.5,-,N/A,,Overcast,170,2012-10-10 07:55:00
1:15 AM,53.6,26.6,35,29.98,10.0,Calm,Calm,-,N/A,,Overcast,0,2012-10-10 08:15:00
1:35 AM,53.6,26.6,35,29.99,10.0,Calm,Calm,-,N/A,,Overcast,0,2012-10-10 08:35:00
1:55 AM,53.6,26.6,35,29.99,10.0,Calm,Calm,-,N/A,,Overcast,0,2012-10-10 08:55:00
2:15 AM,53.6,24.8,33,30.00,10.0,Calm,Calm,-,N/A,,Overcast,0,2012-10-10 09:15:00
2:35 AM,51.8,26.6,38,30.00,10.0,Calm,Calm,-,N/A,,Overcast,0,2012-10-10 09:35:00
2:55 AM,53.6,26.6,35,29.99,10.0,NW,3.5,-,N/A,,Overcast,310,2012-10-10 09:55:00
3:15 AM,51.8,26.6,38,29.99,10.0,Calm,Calm,-,N/A,,Overcast,0,2012-10-10 10:15:00
3:35 AM,50.0,26.6,40,29.99,10.0,Calm,Calm,-,N/A,,Scattered Clouds,0,2012-10-10 10:35:00
3:55 AM,46.4,24.8,43,29.99,10.0,Calm,Calm,-,N/A,,Clear,0,2012-10-10 10:55:00
4:15 AM,44.6,24.8,46,29.99,10.0,Calm,Calm,-,N/A,,Clear,0,2012-10-10 11:15:00
4:35 AM,46.4,24.8,43,30.00,10.0,Calm,Calm,-,N/A,,Clear,0,2012-10-10 11:35:00
4:55 AM,46.4,24.8,43,30.00,10.0,Calm,Calm,-,N/A,,Clear,0,2012-10-10 11:55:00
5:15 AM,41.0,26.6,57,30.00,10.0,SE,3.5,-,N/A,,Clear,140,2012-10-10 12:15:00
5:35 AM,41.0,26.6,57,30.01,10.0,Calm,Calm,-,N/A,,Clear,0,2012-10-10 12:35:00
5:55 AM,41.0,26.6,57,30.01,10.0,Calm,Calm,-,N/A,,Clear,0,2012-10-10 12:55:00
6:35 AM,44.6,26.6,49,30.02,10.0,Calm,Calm,-,N/A,,Clear,0,2012-10-10 13:35:00
6:55 AM,41.0,28.4,61,30.02,10.0,SSW,3.5,-,N/A,,Clear,210,2012-10-10 13:55:00
7:15 AM,41.0,28.4,61,30.03,10.0,Calm,Calm,-,N/A,,Clear,0,2012-10-10 14:15:00
7:35 AM,39.2,26.6,61,30.03,10.0,Calm,Calm,-,N/A,,Clear,0,2012-10-10 14:35:00
7:55 AM,41.0,26.6,57,30.04,10.0,Calm,Calm,-,N/A,,Clear,0,2012-10-10 14:55:00
8:15 AM,44.6,26.6,49,30.04,10.0,Calm,Calm,-,N/A,,Clear,0,2012-10-10 15:15:00
8:35 AM,46.4,28.4,50,30.05,10.0,Calm,Calm,-,N/A,,Clear,0,2012-10-10 15:35:00
8:55 AM,48.2,28.4,46,30.05,10.0,Calm,Calm,-,N/A,,Clear,0,2012-10-10 15:55:00
9:15 AM,50.0,28.4,43,30.05,10.0,Calm,Calm,-,N/A,,Clear,0,2012-10-10 16:15:00
9:55 AM,55.4,28.4,36,30.04,10.0,Calm,Calm,-,N/A,,Clear,0,2012-10-10 16:55:00
10:15 AM,57.2,28.4,33,30.04,10.0,Calm,Calm,-,N/A,,Clear,0,2012-10-10 17:15:00
10:35 AM,59.0,28.4,31,30.04,10.0,Calm,Calm,-,N/A,,Clear,0,2012-10-10 17:35:00
10:55 AM,60.8,28.4,29,30.03,10.0,Calm,Calm,-,N/A,,Clear,0,2012-10-10 17:55:00
11:15 AM,62.6,28.4,27,30.02,10.0,Calm,Calm,-,N/A,,Clear,0,2012-10-10 18:15:00
11:35 AM,66.2,26.6,23,30.02,10.0,East,10.4,-,N/A,,Clear,80,2012-10-10 18:35:00
11:55 AM,68.0,24.8,20,30.01,10.0,East,4.6,-,N/A,,Clear,90,2012-10-10 18:55:00
12:15 PM,68.0,26.6,21,30.00,10.0,North,9.2,-,N/A,,Clear,360,2012-10-10 19:15:00
12:35 PM,69.8,24.8,18,29.99,10.0,East,10.4,-,N/A,,Clear,90,2012-10-10 19:35:00
12:55 PM,71.6,23.0,16,29.98,10.0,NNE,8.1,-,N/A,,Clear,30,2012-10-10 19:55:00
1:15 PM,71.6,24.8,17,29.97,10.0,NE,9.2,-,N/A,,Clear,50,2012-10-10 20:15:00
1:35 PM,71.6,23.0,16,29.96,10.0,ENE,5.8,18.4,N/A,,Clear,70,2012-10-10 20:35:00
1:55 PM,73.4,21.2,14,29.95,10.0,East,13.8,18.4,N/A,,Clear,100,2012-10-10 20:55:00
2:15 PM,73.4,21.2,14,29.94,10.0,ESE,8.1,19.6,N/A,,Clear,110,2012-10-10 21:15:00
2:35 PM,73.4,23.0,15,29.93,10.0,East,8.1,26.5,N/A,,Partly Cloudy,90,2012-10-10 21:35:00
2:55 PM,73.4,24.8,16,29.93,10.0,East,9.2,20.7,N/A,,Partly Cloudy,90,2012-10-10 21:55:00
3:15 PM,73.4,24.8,16,29.93,10.0,East,10.4,17.3,N/A,,Scattered Clouds,90,2012-10-10 22:15:00
3:35 PM,73.4,24.8,16,29.92,10.0,NE,18.4,24.2,N/A,,Mostly Cloudy,40,2012-10-10 22:35:00
3:55 PM,69.8,24.8,18,29.92,10.0,ENE,10.4,17.3,N/A,,Scattered Clouds,60,2012-10-10 22:55:00
4:15 PM,71.6,24.8,17,29.91,10.0,NE,8.1,21.9,N/A,,Clear,50,2012-10-10 23:15:00
4:35 PM,71.6,24.8,17,29.91,10.0,ENE,9.2,24.2,N/A,,Clear,60,2012-10-10 23:35:00
4:55 PM,73.4,23.0,15,29.90,10.0,ENE,10.4,19.6,N/A,,Clear,60,2012-10-10 23:55:00
5:15 PM,71.6,24.8,17,29.90,10.0,ENE,12.7,18.4,N/A,,Clear,60,2012-10-11 00:15:00
5:35 PM,71.6,23.0,16,29.90,10.0,East,11.5,18.4,N/A,,Clear,80,2012-10-11 00:35:00
5:55 PM,69.8,24.8,18,29.90,10.0,ENE,11.5,17.3,N/A,,Clear,60,2012-10-11 00:55:00
6:15 PM,68.0,24.8,20,29.90,10.0,NE,9.2,-,N/A,,Clear,50,2012-10-11 01:15:00
6:35 PM,64.4,23.0,21,29.91,10.0,ENE,6.9,-,N/A,,Clear,70,2012-10-11 01:35:00
6:55 PM,64.4,23.0,21,29.91,10.0,ENE,5.8,-,N/A,,Clear,60,2012-10-11 01:55:00
7:15 PM,66.2,23.0,19,29.91,10.0,NE,10.4,-,N/A,,Clear,50,2012-10-11 02:15:00
7:35 PM,66.2,24.8,21,29.92,10.0,NNE,5.8,-,N/A,,Partly Cloudy,30,2012-10-11 02:35:00
7:55 PM,60.8,24.8,25,29.92,10.0,Calm,Calm,-,N/A,,Mostly Cloudy,0,2012-10-11 02:55:00
8:15 PM,60.8,24.8,25,29.92,10.0,Calm,Calm,-,N/A,,Overcast,0,2012-10-11 03:15:00
8:35 PM,60.8,24.8,25,29.93,10.0,NE,13.8,-,N/A,,Overcast,50,2012-10-11 03:35:00
8:55 PM,64.4,32.0,30,29.95,10.0,ENE,20.7,27.6,N/A,,Overcast,60,2012-10-11 03:55:00
9:15 PM,62.6,33.8,34,29.95,10.0,ENE,20.7,28.8,N/A,,Overcast,70,2012-10-11 04:15:00
9:35 PM,62.6,33.8,34,29.96,10.0,ENE,19.6,27.6,N/A,,Overcast,60,2012-10-11 04:35:00
9:55 PM,62.6,35.6,37,29.96,10.0,ENE,11.5,20.7,N/A,,Overcast,70,2012-10-11 04:55:00
10:15 PM,60.8,35.6,39,29.96,10.0,East,9.2,-,N/A,,Mostly Cloudy,80,2012-10-11 05:15:00
10:55 PM,62.6,33.8,34,29.96,10.0,NE,12.7,-,N/A,,Mostly Cloudy,50,2012-10-11 05:55:00
11:15 PM,62.6,33.8,34,29.96,10.0,ENE,13.8,-,N/A,,Overcast,70,2012-10-11 06:15:00
11:35 PM,60.8,35.6,39,29.97,10.0,NE,17.3,21.9,N/A,,Overcast,50,2012-10-11 06:35:00
11:55 PM,59.0,35.6,42,29.97,10.0,NE,13.8,-,N/A,,Mostly Cloudy,50,2012-10-11 06:55:00